STARLINK-34475 (64603 NORAD) Tracking and Keplerian Element Data

This shows tracking and keplerian element data for the satellite.

Feedback or suggestion? Click here.




ElementValue
Catalog64603
NameSTARLINK-34475
Epoch Orbit2854
Epoch Day354.16221851
Epoch Year2025
RAAN345.7167
Inclination53.1604
Eccentricity0.0001503
Argument of Perigee96.6023
Mean Anonmoly263.5153
Mean Motion15.39629558
Decay Rate0.00031415
L11 64603U 25137K 25354.16221851 .00031415 00000+0 79187-3 0 9990
L22 64603 53.1604 345.7167 0001503 96.6023 263.5153 15.39629558 28545



Live tracking and technical data element details for STARLINK-34475 (NORAD 64603). STARLINK-34475 can be tracked NOW for your location showing map with azimuth and elevation plus other details from your city location.







IsCatalogInMostPopularTable: catalog: 64603, numindb: 3
Update: records affected: 1



GetName: 64603 STARLINK-34475

Hit Count: updated at: Sat, 07 Feb 2026 08:25:36 GMT